FW9291 Weather Reports


time (UTC)temp
C
wind
direction
speed
KPH
gust
KPH
rain 1hr
cm
rain 24hr
cm
rain mn
cm
humidity
%
barometer
mb
20260509234635 19 282 17.7 30.6 0.00 0.00 0.00 54 997.6
20260509234135 19 306 16.1 27.4 0.00 0.00 0.00 53 997.8
20260509233630 19 301 12.9 25.7 0.00 0.00 0.00 53 997.7
20260509232126 19 272 14.5 32.2 0.00 0.00 0.00 53 998.0
20260509231625 19 238 14.5 32.2 0.00 0.00 0.00 53 998.0
20260509231125 19 256 14.5 32.2 0.00 0.00 0.00 52 998.1
20260509230635 19 248 14.5 25.7 0.00 0.00 0.00 53 998.0
20260509230126 19 225 12.9 25.7 0.00 0.00 0.00 53 998.0
20260509225625 19 245 11.3 25.7 0.00 0.00 0.00 53 998.0
20260509225126 19 276 11.3 24.1 0.00 0.00 0.00 53 998.1
20260509224626 19 262 11.3 22.5 0.00 0.00 0.00 53 998.1
20260509224124 19 275 9.7 22.5 0.00 0.00 0.00 52 998.1
20260509223123 18 242 12.9 25.7 0.00 0.00 0.00 53 998.3
20260509222619 18 294 12.9 25.7 0.00 0.00 0.00 53 998.2
20260509222119 18 271 8.0 17.7 0.00 0.00 0.00 53 998.2
20260509221619 18 256 8.0 20.9 0.00 0.00 0.00 55 998.2
20260509221121 18 226 11.3 27.4 0.00 0.00 0.00 55 998.2
20260509220621 18 292 11.3 27.4 0.00 0.00 0.00 54 998.3
20260509220120 18 282 11.3 24.1 0.00 0.00 0.00 56 998.3
20260509215619 18 243 11.3 25.7 0.00 0.00 0.00 56 998.3
20260509215119 17 293 12.9 25.7 0.00 0.00 0.00 56 998.3
20260509214619 17 262 12.9 24.1 0.00 0.00 0.00 56 998.2
20260509213618 17 271 11.3 22.5 0.00 0.00 0.00 57 998.3
20260509213119 17 230 11.3 24.1 0.00 0.00 0.00 57 998.4
20260509212621 17 249 11.3 24.1 0.00 0.00 0.00 57 998.3
20260509212114 17 297 12.9 24.1 0.00 0.00 0.00 58 998.3
20260509211613 17 271 12.9 27.4 0.00 0.00 0.00 59 998.3
20260509211112 16 302 14.5 29.0 0.00 0.00 0.00 59 998.1
20260509210111 16 313 12.9 22.5 0.00 0.00 0.00 59 998.4
20260509205109 16 276 9.7 19.3 0.00 0.00 0.00 60 998.1
20260509204108 16 289 9.7 20.9 0.00 0.00 0.00 60 998.1
20260509203610 16 261 11.3 20.9 0.00 0.00 0.00 61 998.1
20260509203108 15 284 12.9 20.9 0.00 0.00 0.00 61 998.0
20260509202609 15 271 12.9 22.5 0.00 0.00 0.00 61 998.0
20260509202106 15 305 11.3 22.5 0.00 0.00 0.00 62 998.0
20260509201604 15 263 9.7 16.1 0.00 0.00 0.00 63 998.0
20260509201105 15 279 9.7 22.5 0.00 0.00 0.00 63 997.9
20260509200104 15 279 11.3 24.1 0.00 0.00 0.00 64 997.8
20260509195606 15 279 11.3 19.3 0.00 0.00 0.00 64 997.9
20260509195104 14 303 9.7 17.7 0.00 0.00 0.00 64 997.8
20260509194605 14 279 8.0 17.7 0.00 0.00 0.00 65 997.9
20260509193606 14 286 9.7 17.7 0.00 0.00 0.00 65 997.7
20260509193106 13 281 8.0 17.7 0.00 0.00 0.00 65 997.8
20260509192607 13 282 8.0 17.7 0.00 0.00 0.00 66 997.7
20260509192107 13 286 8.0 17.7 0.00 0.00 0.00 66 997.6
20260509191106 13 273 6.4 14.5 0.00 0.00 0.00 66 997.7
20260509190606 13 292 6.4 14.5 0.00 0.00 0.00 66 997.7
20260509190107 13 282 6.4 14.5 0.00 0.00 0.00 66 997.8
20260509185609 13 298 6.4 11.3 0.00 0.00 0.00 66 997.8
20260509185102 13 289 6.4 12.9 0.00 0.00 0.00 66 997.7
20260509184602 13 292 6.4 12.9 0.00 0.00 0.00 66 997.7
20260509183603 13 281 6.4 12.9 0.00 0.00 0.00 66 997.7
20260509183100 13 295 6.4 14.5 0.00 0.00 0.00 66 997.8
20260509182600 13 304 6.4 16.1 0.00 0.00 0.00 65 997.6
20260509182102 13 292 6.4 16.1 0.00 0.00 0.00 66 997.7
20260509181051 13 304 8.0 16.1 0.00 0.00 0.00 65 997.7
20260509180552 13 319 8.0 24.1 0.00 0.00 0.00 65 997.6
20260509180049 13 328 9.7 24.1 0.00 0.00 0.00 65 997.7
20260509175046 13 299 9.7 19.3 0.00 0.00 0.00 65 997.8
20260509174045 13 302 8.0 16.1 0.00 0.00 0.00 64 997.7
20260509173544 13 306 8.0 16.1 0.00 0.00 0.00 64 997.8
20260509173044 13 279 8.0 16.1 0.00 0.00 0.00 64 997.8
20260509172544 13 323 8.0 14.5 0.00 0.00 0.00 64 997.7
20260509172046 13 303 8.0 14.5 0.00 0.00 0.00 64 997.8
20260509171543 14 292 9.7 17.7 0.00 0.00 0.00 63 997.7
20260509171044 14 292 9.7 19.3 0.00 0.00 0.00 63 997.7
20260509170543 13 279 9.7 19.3 0.00 0.00 0.00 63 997.8
20260509170042 13 286 9.7 22.5 0.00 0.00 0.00 63 997.8
20260509165541 13 294 11.3 29.0 0.00 0.00 0.00 63 997.7
20260509165041 13 319 11.3 29.0 0.00 0.00 0.00 63 997.7
20260509164038 13 314 9.7 19.3 0.00 0.00 0.00 64 997.7
20260509163538 13 273 11.3 20.9 0.00 0.00 0.00 63 997.6
20260509162537 13 279 11.3 20.9 0.00 0.00 0.00 64 997.7
20260509162036 13 311 11.3 20.9 0.00 0.00 0.00 63 997.8
20260509161536 13 263 11.3 20.9 0.00 0.00 0.00 63 997.8
20260509161035 13 305 11.3 20.9 0.00 0.00 0.00 62 998.0
20260509160537 13 260 12.9 22.5 0.00 0.00 0.00 62 998.0
20260509160035 13 319 12.9 22.5 0.00 0.00 0.00 62 997.8
20260509155537 13 305 12.9 30.6 0.00 0.00 0.00 62 997.9
20260509155036 13 296 14.5 30.6 0.00 0.00 0.00 62 997.9
20260509154538 13 281 16.1 30.6 0.00 0.00 0.00 61 998.0
20260509153535 13 325 14.5 27.4 0.00 0.00 0.00 60 998.2
20260509153036 14 263 12.9 27.4 0.00 0.00 0.00 60 998.3
20260509152540 14 296 14.5 24.1 0.00 0.00 0.00 59 998.3
20260509152043 14 304 16.1 30.6 0.00 0.00 0.00 58 998.3
20260509150034 14 275 14.5 29.0 0.00 0.00 0.00 59 998.5
20260509145535 14 255 12.9 24.1 0.00 0.00 0.00 60 998.5
20260509145033 14 290 11.3 22.5 0.00 0.00 0.00 61 998.7
20260509144536 14 288 11.3 20.9 0.00 0.00 0.00 61 998.9
20260509144033 13 329 11.3 19.3 0.00 0.00 0.00 62 999.0
20260509143533 13 243 8.0 17.7 0.00 0.03 0.00 62 999.0
20260509143033 13 260 8.0 17.7 0.00 0.03 0.00 62 999.0
20260509142536 14 271 9.7 19.3 0.00 0.05 0.00 62 999.1
20260509142034 14 270 9.7 19.3 0.00 0.05 0.00 62 999.3
20260509141537 14 292 9.7 17.7 0.00 0.05 0.00 62 999.4
20260509141035 13 269 8.0 19.3 0.00 0.05 0.00 63 999.5
20260509140535 13 244 6.4 19.3 0.00 0.05 0.00 65 999.5
20260509140031 13 255 8.0 20.9 0.00 0.05 0.00 65 999.6
20260509135532 13 293 9.7 20.9 0.00 0.05 0.00 65 999.7
20260509135031 13 296 8.0 19.3 0.00 0.05 0.00 66 999.6
20260509134531 13 292 8.0 17.7 0.00 0.05 0.00 67 999.7
20260509134033 13 247 8.0 17.7 0.00 0.05 0.00 68 999.7
20260509133531 13 258 6.4 16.1 0.00 0.05 0.00 70 999.7
20260509133031 12 265 4.8 16.1 0.00 0.05 0.00 71 999.7
20260509132033 12 300 4.8 12.9 0.00 0.05 0.00 75 999.8
20260509131532 12 286 4.8 11.3 0.00 0.05 0.00 75 999.7
20260509131034 12 263 4.8 9.7 0.00 0.05 0.00 75 999.7
20260509130531 12 269 3.2 9.7 0.00 0.05 0.00 75 999.7
20260509130035 12 275 3.2 9.7 0.00 0.05 0.00 76 999.7
20260509125531 12 279 3.2 6.4 0.00 0.08 0.00 75 999.6
20260509125030 12 269 1.6 4.8 0.00 0.08 0.00 74 999.8
20260509124531 12 269 1.6 3.2 0.00 0.08 0.00 74 999.9
20260509124034 12 269 0.0 3.2 0.00 0.08 0.00 74 999.8
20260509123033 12 269 1.6 4.8 0.00 0.08 0.00 73 999.6
20260509122533 13 268 1.6 6.4 0.00 0.08 0.00 73 999.6
20260509122031 13 269 1.6 6.4 0.00 0.08 0.00 72 999.6
20260509121532 13 267 3.2 9.7 0.00 0.08 0.00 72 999.6
20260509121031 13 274 4.8 9.7 0.00 0.08 0.00 72 999.7
20260509120532 13 300 4.8 8.0 0.00 0.08 0.00 71 999.6
20260509120032 13 281 3.2 8.0 0.00 0.08 0.00 70 999.7
20260509115524 14 279 4.8 6.4 0.00 0.08 0.08 69 999.8
20260509115022 14 279 4.8 9.7 0.00 0.08 0.08 69 999.9
20260509114518 14 267 4.8 11.3 0.00 0.08 0.08 68 999.9
20260509114016 15 265 6.4 11.3 0.00 0.08 0.08 67 1000.0
20260509113017 15 278 6.4 12.9 0.00 0.08 0.08 66 1000.2
20260509112517 14 296 6.4 12.9 0.00 0.08 0.08 67 1000.3
20260509112017 14 303 6.4 11.3 0.00 0.08 0.08 67 1000.3
20260509111517 14 296 4.8 9.7 0.00 0.08 0.08 68 1000.6
20260509110515 14 311 4.8 8.0 0.00 0.08 0.08 68 1000.8
20260509110015 14 281 3.2 6.4 0.00 0.08 0.08 68 1000.6
20260509105522 15 294 4.8 9.7 0.00 0.08 0.08 67 1000.7
20260509105020 15 278 4.8 14.5 0.00 0.08 0.08 66 1000.6
20260509104519 15 286 6.4 14.5 0.00 0.08 0.08 66 1000.5
20260509103519 15 313 6.4 12.9 0.00 0.08 0.08 67 1000.6
20260509103021 15 287 6.4 12.9 0.00 0.08 0.08 67 1000.7
20260509102519 15 286 6.4 14.5 0.00 0.08 0.08 66 1000.9
20260509102017 15 283 6.4 14.5 0.00 0.08 0.08 66 1001.0
20260509101516 15 307 6.4 14.5 0.00 0.08 0.08 66 1000.9
20260509101014 15 309 4.8 12.9 0.00 0.08 0.08 67 1000.9
20260509100513 15 317 4.8 11.3 0.00 0.08 0.08 67 1000.9
20260509100013 15 290 6.4 14.5 0.00 0.08 0.08 67 1000.8
20260509095513 15 281 6.4 14.5 0.00 0.08 0.08 66 1000.8
20260509095013 15 286 4.8 11.3 0.00 0.08 0.08 68 1000.8
20260509094008 15 311 6.4 12.9 0.00 0.08 0.08 69 1000.7
20260509093508 15 330 3.2 8.0 0.00 0.08 0.08 69 1000.9
20260509093006 15 333 3.2 6.4 0.00 0.08 0.08 68 1000.9
20260509092512 15 329 3.2 6.4 0.00 0.08 0.08 68 1000.9
20260509092007 15 305 4.8 6.4 0.00 0.08 0.08 68 1000.8
20260509091506 15 315 4.8 9.7 0.00 0.08 0.08 67 1000.8
20260509091006 15 314 4.8 11.3 0.00 0.08 0.08 67 1001.0
20260509090006 15 309 1.6 4.8 0.00 0.08 0.08 67 1001.0
20260509085503 15 309 3.2 6.4 0.00 0.08 0.08 67 1001.0
20260509085007 15 309 4.8 8.0 0.00 0.08 0.08 67 1000.9
20260509084504 15 319 4.8 8.0 0.00 0.08 0.08 68 1000.8
20260509084004 15 278 4.8 8.0 0.00 0.08 0.08 69 1000.7
20260509083505 15 294 3.2 8.0 0.00 0.08 0.08 69 1000.7
20260509082957 15 311 3.2 9.7 0.00 0.08 0.08 69 1000.7
20260509082457 15 309 3.2 9.7 0.00 0.08 0.08 69 1000.7
20260509081957 15 275 3.2 6.4 0.00 0.08 0.08 68 1000.7
20260509081457 15 315 3.2 6.4 0.00 0.08 0.08 67 1000.6
20260509080958 15 314 3.2 6.4 0.00 0.08 0.08 67 1000.6
20260509080457 15 315 3.2 6.4 0.00 0.08 0.08 67 1000.4
20260509075954 15 313 3.2 6.4 0.00 0.08 0.08 66 1000.4
20260509075454 15 313 3.2 6.4 0.00 0.08 0.08 66 1000.3
20260509074955 16 313 3.2 6.4 0.00 0.08 0.08 66 1000.4
20260509074452 16 326 3.2 6.4 0.00 0.08 0.08 66 1000.2
20260509073952 16 307 4.8 9.7 0.00 0.08 0.08 65 1000.3
20260509073452 16 327 4.8 9.7 0.00 0.08 0.08 66 1000.2
20260509071440 16 296 3.2 4.8 0.00 0.08 0.08 66 1000.0
20260509070946 16 296 3.2 6.4 0.00 0.08 0.08 65 999.9
20260509070448 16 296 3.2 6.4 0.00 0.08 0.08 65 999.9
20260509065943 16 300 4.8 9.7 0.00 0.08 0.08 65 999.8
20260509065444 16 281 4.8 9.7 0.00 0.08 0.08 65 999.9
20260509064944 16 302 6.4 12.9 0.00 0.08 0.08 65 1000.0
20260509064445 16 306 6.4 12.9 0.00 0.08 0.08 64 1000.1
20260509063440 16 325 4.8 11.3 0.00 0.08 0.08 65 1000.2
20260509062937 16 312 4.8 9.7 0.00 0.08 0.08 65 1000.1
20260509062438 16 311 4.8 9.7 0.00 0.08 0.08 64 1000.1
20260509061432 17 331 4.8 12.9 0.00 0.08 0.08 63 1000.1
20260509060932 17 355 3.2 8.0 0.00 0.08 0.08 63 1000.1
20260509060431 17 322 4.8 8.0 0.00 0.08 0.08 63 1000.1
20260509055934 17 327 4.8 12.9 0.00 0.08 0.08 63 1000.0
20260509055432 17 305 4.8 12.9 0.00 0.08 0.08 62 999.9
20260509054931 17 318 6.4 12.9 0.00 0.08 0.08 62 999.6
20260509054432 17 323 4.8 9.7 0.00 0.08 0.08 62 999.6
20260509053931 17 323 4.8 8.0 0.00 0.08 0.08 61 999.6
20260509053435 17 305 3.2 6.4 0.00 0.08 0.08 60 999.5
20260509052934 18 271 4.8 11.3 0.00 0.08 0.08 60 999.4
20260509052435 18 319 6.4 12.9 0.00 0.08 0.08 59 999.5
20260509051934 18 291 6.4 12.9 0.00 0.08 0.08 59 999.6
20260509051433 18 290 8.0 12.9 0.00 0.08 0.08 59 999.5
20260509050933 18 313 8.0 16.1 0.00 0.08 0.08 59 999.3
20260509050444 18 327 8.0 16.1 0.00 0.08 0.08 58 999.4
20260509045433 19 328 8.0 14.5 0.00 0.08 0.08 57 999.4
20260509044432 19 302 11.3 20.9 0.00 0.08 0.08 56 999.4
20260509043931 19 343 11.3 24.1 0.00 0.08 0.08 56 999.4
20260509043433 19 308 12.9 25.7 0.00 0.08 0.08 56 999.3
20260509042931 19 288 12.9 25.7 0.00 0.08 0.08 57 999.2
20260509042431 19 343 11.3 24.1 0.00 0.08 0.08 57 999.1
20260509041934 19 316 11.3 24.1 0.00 0.08 0.08 58 999.1
20260509040931 19 294 12.9 22.5 0.00 0.08 0.08 57 999.1
20260509040434 19 311 11.3 22.5 0.00 0.08 0.08 56 999.1
20260509035435 19 320 14.5 24.1 0.00 0.08 0.08 55 998.9
20260509034939 19 313 16.1 30.6 0.00 0.08 0.08 55 999.0
20260509034438 19 298 16.1 30.6 0.00 0.08 0.08 54 998.9
20260509033932 19 319 14.5 25.7 0.00 0.08 0.08 53 998.8
20260509032933 20 313 11.3 22.5 0.00 0.08 0.08 53 999.0
20260509032431 20 325 12.9 22.5 0.00 0.08 0.08 52 998.9
20260509030933 20 317 12.9 22.5 0.00 0.08 0.08 52 998.9
20260509030432 20 321 14.5 25.7 0.00 0.08 0.08 51 998.9
20260509025932 20 309 16.1 30.6 0.00 0.08 0.08 51 998.9
20260509025434 20 309 14.5 30.6 0.00 0.08 0.08 51 998.8
20260509024935 20 308 14.5 30.6 0.00 0.08 0.08 50 998.8
20260509024432 21 323 14.5 27.4 0.00 0.08 0.08 49 998.8
20260509023936 21 0 14.5 27.4 0.00 0.08 0.08 49 998.8
20260509023434 21 282 16.1 33.8 0.00 0.08 0.08 48 998.8
20260509022932 21 325 16.1 33.8 0.00 0.08 0.08 49 998.7
20260509021431 21 329 14.5 27.4 0.00 0.08 0.08 50 998.8
20260509020933 20 313 14.5 27.4 0.00 0.08 0.08 50 998.9
20260509020432 21 300 14.5 27.4 0.00 0.08 0.08 50 999.0
20260509015932 20 325 14.5 25.7 0.00 0.08 0.08 51 999.0
20260509015431 20 311 14.5 29.0 0.00 0.08 0.08 51 999.1
20260509014933 21 333 16.1 29.0 0.00 0.08 0.08 51 999.0
20260509014430 21 303 17.7 30.6 0.00 0.08 0.08 50 999.1
20260509013928 21 294 17.7 30.6 0.00 0.08 0.08 48 999.0
20260509012927 22 313 16.1 32.2 0.00 0.08 0.08 48 998.9
20260509011926 21 313 14.5 29.0 0.00 0.08 0.08 51 999.1
20260509011428 21 304 14.5 30.6 0.00 0.08 0.08 52 999.3
20260509010927 21 308 14.5 30.6 0.00 0.08 0.08 53 999.3
20260509010428 21 345 14.5 25.7 0.00 0.08 0.08 54 999.3
20260509005422 21 325 14.5 25.7 0.00 0.08 0.08 53 999.4
20260509004426 21 322 17.7 29.0 0.00 0.08 0.08 53 999.7
20260509003927 21 301 16.1 27.4 0.00 0.08 0.08 53 999.7
20260509003422 21 0 14.5 29.0 0.00 0.08 0.08 53 1000.1
20260509002921 21 322 16.1 29.0 0.00 0.08 0.08 53 1000.2
20260509002422 21 317 16.1 30.6 0.00 0.08 0.08 54 1000.1
20260509001921 21 350 17.7 32.2 0.00 0.08 0.08 54 1000.1
20260509001423 21 308 17.7 32.2 0.00 0.08 0.08 54 1000.0
20260508235921 21 326 16.1 29.0 0.00 0.08 0.08 55 1000.4
20260508235421 21 5 17.7 29.0 0.00 0.08 0.08 55 1000.4
20260508234916 21 332 17.7 29.0 0.00 0.08 0.08 55 1000.6